FENGYUN 1C DEB

Satellite information

Favourite Embed

Satellite Type and Status

DEBRISIN ORBIT

Key statistics

Satellite FENGYUN 1C DEB at a glance.

Uptime

9619

Days in orbit

Revolutions

≈ 14.0

Per day

Orbit

SSO

Sun Synchronous Orbit

Inclination

99.9

Latest

Satellite identification and parameters

Extended collection of information and parameters for FENGYUN 1C DEB.

Object identification

Identified? True

Debris? True

Object name: FENGYUN 1C DEB

International designator: 1999-025CRM

Object number (NORAD): 32119

Object ID (CCSDS): 32119

Country: PEOPLES REPUBLIC OF CHINA (PRC)

Current information (Y/N): Y

RCS size: SMALL

Orbital parameters

Period: 102.673 minutes

Inclination: 99.8973 deg

SMA: 7263.23 km

Apoapsis: 947.386 km

Periapsis: 822.804 km

RAAN: 105.6806 deg

Eccentricy: 0.00857622

Argument of periapsis: 311.0196 deg

Mean anomaly: 48.3574 deg

Mean motion: 14.02516889 rev/day

Mean motion (dot): 0.00001331 rev/day2

B* drag term: 0.00086980137 1/REarth

Two-line elements (TLE)

Creation date: Sept. 8, 2025, 6:18 p.m.

Reference frame: TEME

Reference center: EARTH

Epoch: Sept. 8, 2025, 7:25 a.m. UTC

TLE line 0: 0 FENGYUN 1C DEB

TLE line 1: 1 32119U 99025CRM 25251.30969094 .00001331 00000-0 86980-3 0 9998

TLE line 2: 2 32119 99.8973 105.6806 0085762 311.0196 48.3574 14.02516889923906

Live tracking on map

Real-time ground track for satellite FENGYUN 1C DEB.

In-orbit conjunctions

A list of the most updated potential collisions computed for object FENGYUN 1C DEB.

Target Orbit TCA Probability of collision Miss distance Type
NOAA 16 DEB SSO 2025-09-06 09:08:47 0.0009080812 68.0 (m) DEBRIS
FENGYUN 1C DEB SSO 2025-08-09 19:33:48 0.0002166901 140.0 (m) DEBRIS

Associated space launch

Chinese polar orbiting meteorological satellite

FENGYUN 1C DEB was lifted into orbit during the mission ‘Long March 4B | Feng Yun 1C’, on board a Long March 4B space rocket.

The launch took place on May 10, 1999, 1:33 a.m. from Launch Complex 7.

For more information about the launch, click the button.

Launch to space Long March 4B | Feng Yun 1C
Long March 4B | Feng Yun 1C

Agency: N/A

Status: Launch Successful

Launch date: May 10, 1999, 1:33 a.m. UTC

Rocket: Long March 4B

Launch pad: Launch Complex 7

Location: Taiyuan Satellite Launch Center, People's Republic of China

...

Latest news about this satellite

There are no fresh news available about this satellite. Check back as we update our databases every day.


Newsletter sign-up

Weekly statistics, charts and insights to help you stay on top of the space industry.